Regional Weather Roundup
Issued by NWS

Home | Current Version | Previous Version | Graphics & Text | Print | Product List | Glossary On
Versions: 1 2 3 4 5 6 7 8 9 10 11 12 13 14 15 16 17 18 19 20 21 22 23 24 25 26 27 28 29 30 31 32 33 34 35 36 37 38 39 40 41 42 43 44 45 46 47 48 49 50
000
ASUS43 KLSX 260859
RWRMO

WEATHER SUMMARY FOR MISSOURI
NATIONAL WEATHER SERVICE SPRINGFIELD MO
300 AM CST WED NOV 26 2014

NOTE: "FAIR" INDICATES FEW OR NO CLOUDS BELOW 12,000 FEET WITH NO
       SIGNIFICANT WEATHER AND/OR OBSTRUCTIONS TO VISIBILITY.
       CURRENT SKY AND/OR WEATHER CONDITIONS ARE NOT AVAILABLE FOR
       CHILLICOTHE AND FARMINGTON.

MOZ001>031-035>038-043-044-053-054-261000-
...NORTHERN AND WESTERN MISSOURI...

CITY           SKY/WX    TMP DP  RH WIND       PRES   REMARKS
KANSAS CTY INT FLURRIES  38  28  67 SW22G32   29.95R WCI  27
KANSAS C DTWN  CLOUDY    41  22  46 W5        29.97R
LEE`S SUMMIT   CLOUDY    37  22  54 S9        29.95S
ST JOSEPH      FLURRIES  37  31  78 SW14G23   29.94R WCI  28
CHILLICOTHE      N/A     35  21  56 SE7       29.99F WCI  29
KIRKSVILLE     CLOUDY    27  22  81 S7        30.01S WCI  19

$$
MOZ066>068-077>081-088>096-101>105-261000-
...SOUTHWEST MISSOURI...

CITY           SKY/WX    TMP DP  RH WIND       PRES   REMARKS
SPRINGFIELD    PTCLDY    33  21  61 S14       29.99F WCI  23
JOPLIN         CLOUDY    39  23  52 S12       29.97F

$$
MOZ032>034-039>042-045>050-055>058-069>072-261000-
...CENTRAL MISSOURI...

CITY           SKY/WX    TMP DP  RH WIND       PRES   REMARKS
COLUMBIA       PTCLDY    28  19  69 SE9       30.02F WCI  19
JEFFERSON CITY PTCLDY    24  20  84 SE7       30.05F WCI  16
ROLLA          MOCLDY    28  18  66 SE8       30.02F WCI  20
SEDALIA        CLOUDY    35  21  56 S10       29.99F WCI  27
OSAGE BEACH    PTCLDY    28  18  64 SE9       30.01F WCI  20

$$
MOZ051-052-059>065-261000-
...EAST CENTRAL MISSOURI...

CITY           SKY/WX    TMP DP  RH WIND       PRES   REMARKS
ST LOUIS INTL  MOCLDY    29  23  78 E8        30.10F WCI  21
SPIRIT OF STL  MOCLDY    25  22  88 CALM      30.09F
ST CHARLES     PTCLDY    29  27  92 E7        30.10F WCI  22

$$
MOZ072>076-082>087-097>100-106>115-261000-
...SOUTH CENTRAL AND SOUTHEAST MISSOURI...

CITY           SKY/WX    TMP DP  RH WIND       PRES   REMARKS
CAPE GIRARDEAU CLEAR     26  24  92 E5        30.14F WCI  20
FARMINGTON     CLEAR     21  19  93 CALM      30.09F
POPLAR BLUFF   PTCLDY    25  21  85 CALM      30.12F
WEST PLAINS    MOCLDY    29  18  63 S3        30.07F

$$


USA.gov is the U.S. government's official web portal to all federal, state and local government web resources and services.